Location: Eilensen
(51.8108°N, 9.7337°E)
Time: 16:04:49
(UTC+00:00)

Cosmos 2297 Rocket - Visible Passes

Search period start: 11 June 2026 00:00
Search period end: 21 June 2026 00:00
Orbit: 838 x 842 km, 71.0° (Epoch: 11 June)

Date Brightness Start Highest point End Pass type
(mag) Time Alt. Az. Time Alt. Az. Time Alt. Az.
11 Jun 3.9 01:30:47 10° NNW 01:36:02 37° NE 01:41:15 10° ESE visible
11 Jun 5.6 21:46:21 10° NNW 21:47:56 11° N 21:49:31 10° N visible
11 Jun 5.2 23:31:50 10° N 23:34:42 14° NNE 23:37:33 10° NE visible
12 Jun 4.0 01:15:18 10° NNW 01:20:30 35° NE 01:25:41 10° ESE visible
12 Jun 5.6 21:30:42 10° NNW 21:32:22 11° N 21:34:00 10° N visible
12 Jun 5.2 23:16:21 10° N 23:19:08 14° NNE 23:21:54 10° NE visible
13 Jun 4.0 00:59:50 10° NNW 01:05:00 34° NE 01:10:07 10° ESE visible
13 Jun 5.5 21:15:03 10° NNW 21:16:47 11° N 21:18:31 10° N visible
13 Jun 5.2 23:00:53 10° N 23:03:34 13° NNE 23:06:15 10° NE visible
14 Jun 4.0 00:44:21 10° NNW 00:49:28 33° NE 00:54:33 10° ESE visible
14 Jun 5.4 20:59:24 10° NNW 21:01:12 11° N 21:03:01 10° N visible
14 Jun 5.2 22:45:24 10° N 22:48:00 13° NNE 22:50:36 10° NE visible
15 Jun 4.1 00:28:54 10° NNW 00:33:57 32° NE 00:38:58 10° ESE visible
15 Jun 5.4 20:43:45 10° NNW 20:45:38 12° N 20:47:32 10° N visible
15 Jun 5.1 22:29:56 10° N 22:32:27 13° NNE 22:34:56 10° NE visible
16 Jun 4.1 00:13:25 10° NNW 00:18:25 31° NE 00:23:24 10° ESE visible
16 Jun 2.2 01:57:17 10° NW 02:02:55 67° WSW 02:08:31 10° SSE visible
16 Jun 5.3 20:28:05 10° NNW 20:30:04 12° NNW 20:32:03 10° N visible
16 Jun 5.1 22:14:28 10° N 22:16:52 13° NNE 22:19:16 10° NE visible
16 Jun 4.1 23:57:57 10° NNW 00:02:54 30° NE 00:07:49 10° ESE visible
17 Jun 2.2 01:41:47 10° NW 01:47:26 71° WSW 01:53:03 10° SSE visible
17 Jun 5.1 21:58:59 10° N 22:01:18 12° NNE 22:03:37 10° NE visible
17 Jun 4.1 23:42:29 10° NNW 23:47:22 29° NE 23:52:14 10° E visible
18 Jun 2.2 01:26:17 10° NNW 01:31:58 74° WSW 01:37:35 10° SSE visible
18 Jun 5.0 21:43:31 10° N 21:45:44 12° NNE 21:47:57 10° NE visible
18 Jun 4.2 23:27:01 10° NNW 23:31:51 28° NE 23:36:39 10° E visible
19 Jun 2.2 01:10:48 10° NNW 01:16:29 78° WSW 01:22:08 10° SSE visible
19 Jun 5.0 21:28:02 10° N 21:30:10 12° NNE 21:32:18 10° NE visible
19 Jun 4.2 23:11:32 10° NNW 23:16:19 27° NE 23:21:04 10° E visible
20 Jun 2.2 00:55:19 10° NNW 01:01:00 81° WSW 01:06:40 10° SSE visible
20 Jun 5.0 21:12:33 10° N 21:14:37 12° NNE 21:16:40 10° NE visible
20 Jun 4.2 22:56:04 10° NNW 23:00:47 26° NE 23:05:29 10° E visible
